Location: Coed Ely
(51.5661°N, 3.4150°W)
Time: 19:44:43
(UTC+00:00)

ATLAS 5 CENTAUR R/B - Pass Details

Date: 28 January 2021
Orbit: 511 x 1147 km, 63.3° (Epoch: 16 February)

Event Time Altitude Azimuth Distance (km) Brightness Sun altitude
Rises 19:36:02 0° 300° (WNW) 2,921 6.0 -24.7°
Reaches altitude 10° 19:38:38 10° 316° (NW) 2,109 4.9 -25.1°
Maximum altitude 19:42:24 22° 8° (N) 1,580 3.5 -25.7°
Enters shadow 19:42:27 22° 9° (N) 1,582 3.5 -25.7°
